"2009-06-19 00:00:00",988145,5.282,122.4,2.942,0.234,19.52,108.8371,21.91,23.04,25.75,0,111,13.15,22.74,84.4
"2009-06-19 00:00:30",988146,5.814,121.1,1.995,0.234,19.5,108.8369,21.91,23.02,26.03,0,111,13.15,22.74,83.1
"2009-06-19 00:01:00",988147,5.723,119.9,1.501,0.258,19.49,108.8442,21.93,23.01,26.14,0,111,13.15,22.75,81.9
"2009-06-19 00:01:30",988148,5.485,119.3,2.673,0.222,19.52,108.8482,21.94,22.99,26.07,0,111,13.15,22.76,81.3
"2009-06-19 00:02:00",988149,5.236,121.2,1.582,0.085,19.56,108.8499,21.94,22.98,26.13,0,111,13.15,22.77,83.2
"2009-06-19 00:02:30",988150,5.11,120.1,0.862,0.059,19.58,108.8346,21.9,22.96,26.17,0,111,13.15,22.73,82.1
"2009-06-19 00:03:00",988151,5.026,122.9,1.453,0.097,19.57,108.829,21.89,22.94,26.25,0,111,13.15,22.72,84.9
"2009-06-19 00:03:30",988152,4.828,126,1.317,0.078,19.61,108.8251,21.88,22.94,26.33,0,111,13.15,22.71,88.0
"2009-06-19 00:04:00",988153,5.008,121.6,2.838,0.104,19.6,108.8246,21.88,22.93,26.36,0,111,13.16,22.70,83.6
"2009-06-19 00:04:30",988154,5.242,123.6,2.211,0.156,19.56,108.8258,21.88,22.92,26.39,0,111,13.16,22.71,85.6
"2009-06-19 00:05:00",988155,5.681,122.4,1.044,0.105,19.57,108.8265,21.88,22.91,26.48,0,111,13.16,22.71,84.4
"2009-06-19 00:05:30",988156,6.016,118.5,3.18,0.202,19.52,108.8249,21.88,22.89,26.82,0,111,13.16,22.70,80.5
"2009-06-19 00:06:00",988157,6.27,115.5,1.856,0.143,19.48,108.8181,21.86,22.86,27.31,0,111,13.16,22.69,77.5
"2009-06-19 00:06:30",988158,6.357,117.6,1.571,0.118,19.53,108.805,21.83,22.87,27.49,0,111,13.16,22.65,79.6
"2009-06-19 00:07:00",988159,6.125,118.9,1.407,0.236,19.53,108.7997,21.81,22.85,27.18,0,111,13.16,22.64,80.9
"2009-06-19 00:07:30",988160,6.254,117.9,1.166,0.217,19.52,108.7994,21.81,22.84,27.53,0,111,13.16,22.64,79.9
"2009-06-19 00:08:00",988161,6.218,118.1,1.467,0.315,19.54,108.7874,21.78,22.84,27.58,0,111,13.16,22.61,80.1
"2009-06-19 00:08:30",988162,6.632,120.8,1.409,0.13,19.57,108.7708,21.74,22.81,27.59,0,111,13.16,22.57,82.8
"2009-06-19 00:09:00",988163,6.163,124.9,2.958,0.31,19.59,108.766,21.73,22.8,27.49,0,111,13.16,22.55,86.9
"2009-06-19 00:09:30",988164,5.701,123.9,2.563,0.194,19.56,108.766,21.73,22.78,27.47,0,111,13.16,22.55,85.9
"2009-06-19 00:10:00",988165,5.916,122.7,2.124,0.158,19.57,108.7643,21.72,22.77,27.24,0,111,13.16,22.55,84.7
"2009-06-19 00:10:30",988166,6.069,122.6,2.095,0.309,19.58,108.7458,21.67,22.76,27.34,0,111,13.16,22.50,84.6
"2009-06-19 00:11:00",988167,6.46,122.5,2.12,0.205,19.53,108.736,21.65,22.74,28.02,0,111,13.16,22.48,84.5
"2009-06-19 00:11:30",988168,6.514,125.7,3.213,0.495,19.57,108.7332,21.64,22.73,27.72,0,111,13.17,22.47,87.7
"2009-06-19 00:12:00",988169,6.717,124.5,1.286,0.188,19.58,108.7332,21.64,22.7,27.81,0,111,13.17,22.47,86.5
"2009-06-19 00:12:30",988170,6.829,121.6,1.294,0.174,19.58,108.7327,21.64,22.69,28.07,0,111,13.17,22.47,83.6
"2009-06-19 00:13:00",988171,6.688,119.2,2.379,0.227,19.59,108.7183,21.6,22.66,28.12,0,111,13.17,22.43,81.2
"2009-06-19 00:13:30",988172,7.102,117.8,1.511,0.239,19.52,108.7084,21.58,22.67,28.31,0,111,13.17,22.40,79.8
"2009-06-19 00:14:00",988173,7.673,116.8,1.605,0.216,19.49,108.7016,21.56,22.65,28.73,0,111,13.17,22.39,78.8
"2009-06-19 00:14:30",988174,7.671,116.1,1.576,0.135,19.56,108.7013,21.56,22.64,28.81,0,111,13.17,22.39,78.1
"2009-06-19 00:15:00",988175,7.634,115.4,1.292,0.177,19.59,108.703,21.56,22.62,28.75,0,111,13.17,22.39,77.4
"2009-06-19 00:15:30",988176,7.726,114.4,0.608,0.169,19.57,108.6876,21.52,22.61,28.72,0,110.9,13.16,22.35,76.4
"2009-06-19 00:16:00",988177,7.901,115.2,0.609,0.066,19.62,108.6826,21.51,22.59,28.97,0,110.9,13.16,22.34,77.2
"2009-06-19 00:16:30",988178,7.825,114,0.49,0.083,19.57,108.681,21.51,22.59,29.15,0,110.9,13.16,22.33,76.0
"2009-06-19 00:17:00",988179,7.719,113.9,0.996,0.085,19.53,108.6835,21.51,22.56,29.14,0,110.9,13.16,22.34,75.9
"2009-06-19 00:17:30",988180,7.766,116.3,1.062,0.107,19.59,108.6859,21.52,22.54,29.07,0,110.9,13.16,22.35,78.3
"2009-06-19 00:18:00",988181,7.481,117.6,1.035,0.127,19.59,108.67,21.48,22.52,29.05,0,110.9,13.16,22.31,79.6
"2009-06-19 00:18:30",988182,7.396,116.8,1.76,0.118,19.55,108.6636,21.46,22.52,29.24,0,110.9,13.16,22.29,78.8
"2009-06-19 00:19:00",988183,7.213,112.5,1.264,0.19,19.55,108.6592,21.45,22.5,29.43,0,110.9,13.16,22.28,74.5
"2009-06-19 00:19:30",988184,7.185,114.8,1.513,0.11,19.56,108.6586,21.45,22.48,29.4,0,110.9,13.16,22.28,76.8
"2009-06-19 00:20:00",988185,7.01,116.3,0.705,0.091,19.54,108.6583,21.45,22.48,29.45,0,110.9,13.16,22.28,78.3
"2009-06-19 00:20:30",988186,6.888,117.2,0.46,0.069,19.54,108.6561,21.44,22.47,29.47,0,110.9,13.17,22.27,79.2
"2009-06-19 00:21:00",988187,6.937,117.2,0.777,0.11,19.52,108.6486,21.42,22.44,29.66,0,110.9,13.17,22.25,79.2
"2009-06-19 00:21:30",988188,6.725,117.4,1.643,0.231,19.53,108.6398,21.4,22.44,29.74,0,110.9,13.18,22.23,79.4
"2009-06-19 00:22:00",988189,6.65,118.9,0.328,0.06,19.54,108.6374,21.4,22.44,29.78,0,110.9,13.18,22.22,80.9
"2009-06-19 00:22:30",988190,6.71,115.8,1.81,0.082,19.57,108.6342,21.39,22.43,29.83,0,110.9,13.18,22.21,77.8
"2009-06-19 00:23:00",988191,6.664,116.3,1.116,0.223,19.54,108.6341,21.39,22.42,29.72,0,110.9,13.18,22.21,78.3
"2009-06-19 00:23:30",988192,6.682,114.7,0.897,0.084,19.59,108.6341,21.39,22.41,29.83,0,110.9,13.18,22.21,76.7
"2009-06-19 00:24:00",988193,6.715,114.4,1.247,0.089,19.57,108.6341,21.39,22.41,29.89,0,110.9,13.18,22.21,76.4
"2009-06-19 00:24:30",988194,6.533,114,1.079,0.07,19.59,108.6324,21.38,22.38,29.92,0,110.9,13.18,22.21,76.0
"2009-06-19 00:25:00",988195,6.424,115.1,0.834,0.083,19.65,108.6251,21.36,22.39,29.88,0,110.9,13.18,22.19,77.1
"2009-06-19 00:25:30",988196,6.613,115.7,0.787,0.056,19.59,108.6133,21.33,22.37,29.75,0,110.9,13.18,22.16,77.7
"2009-06-19 00:26:00",988197,6.751,117.3,0.891,0.103,19.53,108.6076,21.32,22.36,29.71,0,110.9,13.18,22.15,79.3
"2009-06-19 00:26:30",988198,6.776,117.6,1.119,0.12,19.55,108.6029,21.31,22.35,29.73,0,110.9,13.18,22.13,79.6
"2009-06-19 00:27:00",988199,7.203,115.9,0.934,0.079,19.54,108.6003,21.3,22.36,29.71,0,110.9,13.18,22.13,77.9
"2009-06-19 00:27:30",988200,7.017,117.2,1.687,0.125,19.53,108.6003,21.3,22.34,29.67,0,110.9,13.18,22.13,79.2
"2009-06-19 00:28:00",988201,6.852,119,0.496,0.104,19.65,108.6003,21.3,22.34,29.68,0,110.9,13.18,22.13,81.0
"2009-06-19 00:28:30",988202,6.914,119.8,1.001,0.144,19.56,108.6003,21.3,22.34,29.7,0,110.9,13.18,22.13,81.8
"2009-06-19 00:29:00",988203,6.846,121.1,0.736,0.133,19.49,108.5992,21.3,22.32,29.65,0,110.9,13.18,22.12,83.1
"2009-06-19 00:29:30",988204,6.688,120.4,1.072,0.108,19.59,108.5972,21.29,22.32,29.69,0,110.9,13.18,22.12,82.4
"2009-06-19 00:30:00",988205,6.404,119.2,0.934,0.098,19.57,108.5911,21.28,22.31,29.74,0,110.9,13.18,22.10,81.2
"2009-06-19 00:30:30",988206,6.365,119.3,0.936,0.091,19.57,108.5846,21.26,22.31,29.77,0,110.9,13.18,22.09,81.3
"2009-06-19 00:31:00",988207,6.243,119.6,1.405,0.093,19.57,108.5759,21.24,22.3,29.74,0,110.9,13.18,22.06,81.6
"2009-06-19 00:31:30",988208,6.44,119.1,1.295,0.151,19.53,108.5689,21.22,22.3,29.71,0,110.9,13.18,22.05,81.1
"2009-06-19 00:32:00",988209,6.632,118.9,1.224,0.098,19.52,108.5691,21.22,22.28,29.73,0,110.9,13.18,22.05,80.9
"2009-06-19 00:32:30",988210,6.58,118.4,1.163,0.097,19.5,108.5733,21.23,22.28,29.78,0,110.9,13.18,22.06,80.4
"2009-06-19 00:33:00",988211,6.464,117.7,0.938,0.065,19.48,108.5758,21.24,22.28,29.75,0,110.9,13.18,22.06,79.7
"2009-06-19 00:33:30",988212,6.412,117.2,0.709,0.077,19.52,108.5782,21.24,22.27,29.76,0,110.9,13.18,22.07,79.2
"2009-06-19 00:34:00",988213,6.371,117.2,0.471,0.057,19.52,108.5794,21.25,22.27,29.73,0,110.9,13.18,22.07,79.2
"2009-06-19 00:34:30",988214,6.274,117.3,1.055,0.084,19.53,108.5864,21.26,22.26,29.7,0,110.9,13.18,22.09,79.3
"2009-06-19 00:35:00",988215,6.69,116.1,1.41,0.275,19.51,108.5886,21.27,22.27,29.58,0,110.9,13.18,22.10,78.1
"2009-06-19 00:35:30",988216,6.763,115.5,0.952,0.187,19.45,108.5904,21.27,22.26,29.38,0,110.9,13.18,22.10,77.5
"2009-06-19 00:36:00",988217,6.575,117.3,0.851,0.172,19.45,108.5898,21.27,22.25,29.33,0,110.9,13.18,22.10,79.3
"2009-06-19 00:36:30",988218,6.315,117.5,1.029,0.159,19.52,108.59,21.27,22.25,29.29,0,110.9,13.18,22.10,79.5
"2009-06-19 00:37:00",988219,6.434,116.9,1.578,0.141,19.5,108.5893,21.27,22.25,29.31,0,110.9,13.18,22.10,78.9
"2009-06-19 00:37:30",988220,6.088,116.1,1.148,0.106,19.52,108.5839,21.26,22.24,29.35,0,110.9,13.18,22.08,78.1
"2009-06-19 00:38:00",988221,6.327,116.2,1.418,0.134,19.5,108.5789,21.25,22.25,29.32,0,110.9,13.18,22.07,78.2
"2009-06-19 00:38:30",988222,5.934,118.5,1.993,0.058,19.5,108.5744,21.23,22.23,29.29,0,110.9,13.18,22.06,80.5
"2009-06-19 00:39:00",988223,5.618,122.4,2.055,0.263,19.54,108.5748,21.23,22.23,29.36,0,110.9,13.19,22.06,84.4
"2009-06-19 00:39:30",988224,5.215,117.4,1.314,0.068,19.54,108.5747,21.23,22.24,29.5,0,110.9,13.19,22.06,79.4
"2009-06-19 00:40:00",988225,5.349,116.7,1.429,0.169,19.48,108.5773,21.24,22.24,29.56,0,110.9,13.19,22.07,78.7
"2009-06-19 00:40:30",988226,5.355,116.4,1.501,0.074,19.47,108.5757,21.24,22.23,29.45,0,110.9,13.19,22.06,78.4
"2009-06-19 00:41:00",988227,5.274,116.8,1.279,0.201,19.48,108.5755,21.24,22.23,29.41,0,110.9,13.19,22.06,78.8
"2009-06-19 00:41:30",988228,5.705,116.7,1.62,0.075,19.42,108.5769,21.24,22.22,29.3,0,110.9,13.19,22.07,78.7
"2009-06-19 00:42:00",988229,5.667,117.4,0.597,0.085,19.47,108.5773,21.24,22.23,29.22,0,110.9,13.19,22.07,79.4
"2009-06-19 00:42:30",988230,5.55,115.1,1.23,0.091,19.44,108.5788,21.24,22.23,29.14,0,110.9,13.19,22.07,77.1
"2009-06-19 00:43:00",988231,5.49,114.3,2.376,0.078,19.46,108.5782,21.24,22.23,29.28,0,110.9,13.19,22.07,76.3
"2009-06-19 00:43:30",988232,5.398,117.7,0.85,0.115,19.46,108.5782,21.24,22.23,29.19,0,110.9,13.19,22.07,79.7
"2009-06-19 00:44:00",988233,5.186,116.1,1.13,0.095,19.47,108.5777,21.24,22.23,29.37,0,110.9,13.19,22.07,78.1
"2009-06-19 00:44:30",988234,5.043,115.6,0.993,0.104,19.48,108.5774,21.24,22.23,29.58,0,110.9,13.19,22.07,77.6
"2009-06-19 00:45:00",988235,4.982,113.1,1.642,0.091,19.43,108.5765,21.24,22.24,29.75,0,110.9,13.19,22.07,75.1
"2009-06-19 00:45:30",988236,4.816,114.8,2.127,0.091,19.49,108.5765,21.24,22.25,29.68,0,110.9,13.19,22.07,76.8
"2009-06-19 00:46:00",988237,4.805,115.9,1.682,0.135,19.5,108.5748,21.23,22.25,29.34,0,110.9,13.19,22.06,77.9
"2009-06-19 00:46:30",988238,4.542,114.6,1.517,0.085,19.45,108.5729,21.23,22.24,29.62,0,110.9,13.2,22.06,76.6
"2009-06-19 00:47:00",988239,4.557,112.8,1.828,0.095,19.47,108.5709,21.22,22.24,29.65,0,110.9,13.2,22.05,74.8
"2009-06-19 00:47:30",988240,4.376,111.3,1.459,0.118,19.49,108.5703,21.22,22.24,29.8,0,110.9,13.2,22.05,73.3
"2009-06-19 00:48:00",988241,4.217,113.1,0.907,0.115,19.52,108.5701,21.22,22.25,30,0,110.9,13.2,22.05,75.1
"2009-06-19 00:48:30",988242,4.221,113.3,0.769,0.227,19.48,108.5695,21.22,22.24,29.84,0,110.9,13.2,22.05,75.3
"2009-06-19 00:49:00",988243,3.659,109.9,2.741,0.133,19.37,108.5695,21.22,22.23,30.82,0,110.9,13.2,22.05,71.9
"2009-06-19 00:49:30",988244,3.146,112.8,4.128,0.348,19.35,108.5692,21.22,22.22,31.35,0,110.9,13.19,22.05,74.8
"2009-06-19 00:50:00",988245,2.393,114.6,5.108,0.406,19.32,108.5605,21.2,22.2,32.48,0,110.9,13.19,22.02,76.6
"2009-06-19 00:50:30",988246,2.227,109.3,5.344,0.249,19.32,108.5366,21.14,22.16,33.08,0,110.9,13.19,21.96,71.3
"2009-06-19 00:51:00",988247,1.831,88.6,22.66,0.691,19.29,108.5352,21.13,22.13,33.08,0,110.9,13.19,21.96,50.6
"2009-06-19 00:51:30",988248,0.813,38.97,29.64,0.41,19.28,108.5144,21.08,22.13,33.78,0,110.9,13.19,21.91,1.0
"2009-06-19 00:52:00",988249,0.831,21.43,47.89,0.584,19.27,108.5023,21.05,22.08,33.6,0,110.9,13.19,21.87,343.4
"2009-06-19 00:52:30",988250,0.985,298.5,39.16,0.476,19.24,108.502,21.05,22.08,33.5,0,110.9,13.19,21.87,260.5
"2009-06-19 00:53:00",988251,3.474,282.2,11.33,0.955,19.43,108.502,21.05,22.06,32.6,0,110.9,13.19,21.87,244.2
"2009-06-19 00:53:30",988252,4.172,301.8,4.118,0.681,19.44,108.502,21.05,22.05,31.6,0,110.9,13.19,21.87,263.8
"2009-06-19 00:54:00",988253,5.4,299.7,4.184,0.383,19.51,108.502,21.05,22.04,30.07,0,110.9,13.19,21.87,261.7
"2009-06-19 00:54:30",988254,4.627,319.4,16.77,0.897,19.47,108.502,21.05,22.03,30.46,0,110.9,13.19,21.87,281.4
"2009-06-19 00:55:00",988255,4.597,331,3.465,0.507,19.42,108.502,21.05,22.03,31.34,0,110.9,13.19,21.87,293.0
"2009-06-19 00:55:30",988256,5.836,326.2,3,0.558,19.53,108.502,21.05,22.03,30.51,0,110.9,13.2,21.87,288.2
"2009-06-19 00:56:00",988257,5.632,329,4.073,0.435,19.53,108.502,21.05,22.04,29.81,0,110.9,13.2,21.87,291.0
"2009-06-19 00:56:30",988258,5.107,335.7,6.725,0.352,19.56,108.5023,21.05,22.04,30.12,0,110.9,13.2,21.87,297.7
"2009-06-19 00:57:00",988259,5.644,331.1,3.51,0.483,19.54,108.502,21.05,22.02,30.1,0,110.9,13.2,21.87,293.1
"2009-06-19 00:57:30",988260,4.528,338,6.753,0.562,19.51,108.5023,21.05,22.03,30.24,0,110.9,13.2,21.87,300.0
"2009-06-19 00:58:00",988261,5.472,336.2,7.167,0.744,19.46,108.5032,21.05,22.03,30.03,0,110.9,13.2,21.88,298.2
"2009-06-19 00:58:30",988262,7.111,330.3,4.849,0.67,19.36,108.5023,21.05,22.01,28.5,0,110.9,13.2,21.87,292.3
"2009-06-19 00:59:00",988263,7.266,340.6,6.469,0.598,19.27,108.5023,21.05,22.01,27.82,0,110.9,13.2,21.87,302.6
"2009-06-19 00:59:30",988264,6.942,331.4,3.421,0.215,19.21,108.5039,21.05,22.02,27.28,0,110.9,13.2,21.88,293.4
"2009-06-19 01:00:00",988265,6.734,328.4,3.15,0.452,19.11,108.5042,21.05,22,27.24,0,110.9,13.2,21.88,290.4
"2009-06-19 01:00:30",988266,7.918,330.9,4.037,0.961,19.03,108.5014,21.05,22.02,27.97,0,110.9,13.2,21.87,292.9
"2009-06-19 01:01:00",988267,8.4,334.3,6.9,0.702,19.18,108.4879,21.01,22,27.99,0,110.9,13.2,21.84,296.3
"2009-06-19 01:01:30",988268,7.254,339.6,4.056,0.486,19.14,108.4793,20.99,22.01,27.27,0,110.9,13.2,21.81,301.6
"2009-06-19 01:02:00",988269,7.733,340.8,3.087,0.539,18.96,108.4789,20.99,22,28,0,110.9,13.2,21.81,302.8
"2009-06-19 01:02:30",988270,7.516,343.2,3.02,0.236,18.91,108.471,20.97,22,28.56,0,110.9,13.2,21.79,305.2
"2009-06-19 01:03:00",988271,7.982,335.8,5.391,0.605,18.77,108.4732,20.97,22,28.93,0,110.9,13.2,21.80,297.8
"2009-06-19 01:03:30",988272,9.82,333.9,1.091,0.348,18.58,108.4729,20.97,22.01,29.05,0,110.9,13.2,21.80,295.9
"2009-06-19 01:04:00",988273,10.2,333.9,1.84,0.189,18.62,108.4764,20.98,21.99,28.82,0,110.9,13.2,21.81,295.9
"2009-06-19 01:04:30",988274,10.69,334.5,2.549,0.46,18.73,108.4565,20.93,21.98,28.32,0,110.9,13.2,21.76,296.5
"2009-06-19 01:05:00",988275,11.32,337.7,1.527,0.327,18.67,108.4477,20.91,21.96,28.42,0,110.9,13.2,21.73,299.7
"2009-06-19 01:05:30",988276,11.38,337.5,1.237,0.31,18.69,108.4507,20.92,21.96,28.78,0,110.9,13.2,21.74,299.5
"2009-06-19 01:06:00",988277,10.65,342,2.371,0.31,18.72,108.4523,20.92,21.94,29.11,0,110.9,13.2,21.75,304.0
"2009-06-19 01:06:30",988278,10.5,344.8,2.459,0.445,18.73,108.4312,20.87,21.91,29.21,0,110.9,13.2,21.69,306.8
"2009-06-19 01:07:00",988279,10.83,344.9,1.502,0.502,18.75,108.4258,20.85,21.9,29.36,0,110.9,13.2,21.68,306.9
"2009-06-19 01:07:30",988280,11.47,340.2,2.415,0.254,18.93,108.4226,20.84,21.88,28.75,0,110.9,13.2,21.67,302.2
"2009-06-19 01:08:00",988281,11.29,339.3,1.607,0.17,18.93,108.398,20.78,21.86,28.31,0,110.9,13.2,21.61,301.3
"2009-06-19 01:08:30",988282,11.17,338.1,1.773,0.219,18.81,108.3969,20.78,21.83,28.27,0,110.9,13.2,21.60,300.1
"2009-06-19 01:09:00",988283,11.62,337.4,2.267,0.347,18.78,108.3921,20.77,21.81,28.54,0,110.9,13.2,21.59,299.4
"2009-06-19 01:09:30",988284,12.07,337.2,0.759,0.215,18.72,108.3715,20.71,21.77,28.46,0,110.9,13.2,21.54,299.2
"2009-06-19 01:10:00",988285,11.92,335.8,1.526,0.259,18.73,108.3696,20.71,21.74,28.36,0,110.9,13.2,21.53,297.8
"2009-06-19 01:10:30",988286,11.94,334.6,1.195,0.18,18.63,108.3581,20.68,21.7,28.28,0,110.9,13.2,21.50,296.6
"2009-06-19 01:11:00",988287,12.25,337.6,1.192,0.351,18.61,108.3373,20.62,21.7,28.26,0,110.9,13.2,21.45,299.6
"2009-06-19 01:11:30",988288,12.86,337.6,0.644,0.266,18.65,108.3361,20.62,21.67,27.82,0,110.9,13.2,21.45,299.6
"2009-06-19 01:12:00",988289,13.05,337.8,1.149,0.421,18.41,108.3181,20.58,21.64,28.19,0,110.9,13.2,21.40,299.8
"2009-06-19 01:12:30",988290,13.06,335.5,0.9,0.268,18.5,108.3024,20.54,21.62,28.6,0,110.9,13.21,21.36,297.5
"2009-06-19 01:13:00",988291,12.72,332.7,1.252,0.207,18.66,108.2948,20.52,21.58,28.1,0,110.9,13.21,21.34,294.7
"2009-06-19 01:13:30",988292,12.26,331.5,1.772,0.356,18.56,108.2703,20.45,21.56,28.14,0,110.9,13.21,21.28,293.5
"2009-06-19 01:14:00",988293,12.14,330.8,1.018,0.216,18.44,108.2678,20.45,21.52,28.39,0,110.8,13.21,21.27,292.8
"2009-06-19 01:14:30",988294,12.4,328.8,0.835,0.176,18.58,108.2402,20.38,21.49,27.76,0,110.8,13.21,21.20,290.8
"2009-06-19 01:15:00",988295,12.39,329.2,0.74,0.167,18.63,108.2349,20.36,21.45,27.51,0,110.8,13.21,21.19,291.2
"2009-06-19 01:15:30",988296,12.14,328.9,0.85,0.22,18.51,108.211,20.3,21.41,27.57,0,110.8,13.21,21.12,290.9
"2009-06-19 01:16:00",988297,11.86,329.6,1.114,0.174,18.43,108.2011,20.28,21.38,27.73,0,110.8,13.21,21.10,291.6
"2009-06-19 01:16:30",988298,11.69,329.9,0.53,0.148,18.58,108.1848,20.23,21.35,27.37,0,110.8,13.21,21.06,291.9
"2009-06-19 01:17:00",988299,11.39,329,0.768,0.28,18.29,108.1688,20.19,21.32,27.86,0,110.8,13.21,21.02,291.0
"2009-06-19 01:17:30",988300,11.16,328.7,0.886,0.16,18.57,108.1665,20.19,21.28,27.54,0,110.8,13.21,21.01,290.7
"2009-06-19 01:18:00",988301,11.33,327,0.917,0.173,18.51,108.1435,20.13,21.26,27.26,0,110.8,13.21,20.95,289.0
"2009-06-19 01:18:30",988302,11.1,328.1,0.796,0.264,18.44,108.1337,20.1,21.23,27.39,0,110.8,13.21,20.92,290.1
"2009-06-19 01:19:00",988303,10.94,329.6,0.745,0.263,18.5,108.1314,20.1,21.19,27.54,0,110.8,13.21,20.92,291.6
"2009-06-19 01:19:30",988304,10.58,326.4,2.134,0.147,18.75,108.1134,20.05,21.18,27.16,0,110.8,13.21,20.87,288.4
"2009-06-19 01:20:00",988305,10.44,322.8,1.376,0.463,18.82,108.0999,20.02,21.13,26.76,0,110.8,13.21,20.84,284.8
"2009-06-19 01:20:30",988306,9.8,327.7,0.854,0.187,18.56,108.0999,20.02,21.13,27.11,0,110.8,13.21,20.84,289.7
"2009-06-19 01:21:00",988307,10.19,327.5,0.926,0.183,18.52,108.0931,20,21.1,27.29,0,110.8,13.22,20.82,289.5
"2009-06-19 01:21:30",988308,10.25,325.7,1.328,0.138,18.73,108.0726,19.95,21.09,27.25,0,110.8,13.22,20.77,287.7
"2009-06-19 01:22:00",988309,10.31,325.7,1.543,0.19,18.86,108.0661,19.93,21.04,27.29,0,110.8,13.22,20.75,287.7
"2009-06-19 01:22:30",988310,10.95,327.8,0.741,0.248,18.64,108.0667,19.93,21.06,27.77,0,110.8,13.22,20.75,289.8
"2009-06-19 01:23:00",988311,10.61,324,1.354,0.237,18.86,108.0671,19.93,21.03,28.02,0,110.8,13.22,20.75,286.0
"2009-06-19 01:23:30",988312,10.61,324.8,1.186,0.17,18.89,108.0677,19.93,21,27.88,0,110.8,13.21,20.75,286.8
"2009-06-19 01:24:00",988313,10.84,324.4,1.426,0.331,19,108.0575,19.91,20.99,28.01,0,110.8,13.21,20.73,286.4
"2009-06-19 01:24:30",988314,10.76,320.4,1.53,0.247,19.21,108.0502,19.89,20.99,27.69,0,110.8,13.21,20.71,282.4
"2009-06-19 01:25:00",988315,10.45,320.3,2.101,0.355,19.53,108.0436,19.87,20.98,27.44,0,110.8,13.21,20.69,282.3
"2009-06-19 01:25:30",988316,9.96,316.9,1.371,0.242,19.31,108.0476,19.88,20.95,27.39,0,110.8,13.21,20.70,278.9
"2009-06-19 01:26:00",988317,11.05,319.7,1.776,0.383,18.96,108.0531,19.9,20.94,27.57,0,110.8,13.21,20.72,281.7
"2009-06-19 01:26:30",988318,11.3,319.3,1.107,0.262,19.23,108.0564,19.9,20.93,27.56,0,110.8,13.21,20.73,281.3
"2009-06-19 01:27:00",988319,10.99,317.2,1.073,0.198,18.75,108.054,19.9,20.92,27.54,0,110.8,13.21,20.72,279.2
"2009-06-19 01:27:30",988320,10.27,320.4,2.043,0.259,18.52,108.042,19.87,20.89,27.65,0,110.8,13.21,20.69,282.4
"2009-06-19 01:28:00",988321,9.74,319.1,1.005,0.206,18.55,108.0339,19.85,20.89,27.64,0,110.8,13.21,20.67,281.1
"2009-06-19 01:28:30",988322,10.09,319,0.888,0.233,18.59,108.0287,19.83,20.89,27.57,0,110.8,13.21,20.65,281.0
"2009-06-19 01:29:00",988323,9.38,322.1,1.138,0.268,18.5,108.0284,19.83,20.87,27.59,0,110.8,13.22,20.65,284.1
"2009-06-19 01:29:30",988324,9.68,320.2,1.911,0.326,18.52,108.0296,19.84,20.86,27.61,0,110.8,13.22,20.66,282.2
"2009-06-19 01:30:00",988325,9.8,321.5,3.734,0.261,18.54,108.0324,19.84,20.85,27.57,0,110.8,13.23,20.66,283.5
"2009-06-19 01:30:30",988326,9.98,321.9,1.207,0.298,18.54,108.0339,19.85,20.87,27.55,0,110.8,13.23,20.67,283.9
"2009-06-19 01:31:00",988327,9.97,320.4,2.232,0.365,18.61,108.0348,19.85,20.84,27.52,0,110.8,13.23,20.67,282.4
"2009-06-19 01:31:30",988328,9.78,317.8,3.046,0.223,18.53,108.0348,19.85,20.84,27.75,0,110.8,13.23,20.67,279.8
"2009-06-19 01:32:00",988329,8.08,317.8,4.448,0.407,18.57,108.0323,19.84,20.85,27.79,0,110.8,13.23,20.66,279.8
"2009-06-19 01:32:30",988330,8.47,320.2,3.733,0.234,18.68,108.0284,19.83,20.83,27.79,0,110.8,13.23,20.65,282.2
"2009-06-19 01:33:00",988331,7.73,315.8,5.53,0.229,18.61,108.0185,19.81,20.81,27.63,0,110.8,13.23,20.63,277.8
"2009-06-19 01:33:30",988332,8.08,320.6,1.601,0.362,18.53,108.0059,19.77,20.81,27.59,0,110.8,13.23,20.60,282.6
"2009-06-19 01:34:00",988333,8.58,326.8,3.609,0.244,18.39,108.0013,19.76,20.8,27.96,0,110.8,13.23,20.58,288.8
"2009-06-19 01:34:30",988334,8.9,327.3,4.407,0.303,18.37,108.0013,19.76,20.79,28.13,0,110.8,13.23,20.58,289.3
"2009-06-19 01:35:00",988335,8.61,320.3,6.326,0.376,18.35,108.0013,19.76,20.78,28.4,0,110.8,13.23,20.58,282.3
"2009-06-19 01:35:30",988336,9.52,314.9,1.699,0.332,18.31,108.0013,19.76,20.79,28.3,0,110.8,13.23,20.58,276.9
"2009-06-19 01:36:00",988337,8.57,308.6,2.151,0.582,18.33,108.0013,19.76,20.77,28.38,0,110.8,13.23,20.58,270.6
"2009-06-19 01:36:30",988338,8.38,311.5,2.565,0.256,18.41,107.9971,19.75,20.77,28.3,0,110.8,13.23,20.57,273.5
"2009-06-19 01:37:00",988339,8.18,314.3,2.333,0.501,18.14,107.9876,19.73,20.77,28.51,0,110.8,13.23,20.55,276.3
"2009-06-19 01:37:30",988340,9.32,310.9,1.775,0.312,18.02,107.9693,19.68,20.75,29.47,0,110.8,13.23,20.50,272.9
"2009-06-19 01:38:00",988341,9.39,315,2.382,0.426,18.25,107.9676,19.68,20.75,29.14,0,110.8,13.23,20.50,277.0
"2009-06-19 01:38:30",988342,9.06,315.2,2.458,0.57,17.98,107.9676,19.68,20.73,29.48,0,110.8,13.23,20.50,277.2
"2009-06-19 01:39:00",988343,8.83,312.4,1.98,0.657,18.25,107.9563,19.65,20.71,29.42,0,110.8,13.23,20.47,274.4
"2009-06-19 01:39:30",988344,7.877,317.9,2.332,0.427,18.2,107.938,19.6,20.7,29.1,0,110.8,13.23,20.42,279.9
"2009-06-19 01:40:00",988345,7.159,322.3,2.881,0.497,18.2,107.9338,19.59,20.68,29.04,0,110.8,13.23,20.41,284.3
"2009-06-19 01:40:30",988346,7.964,325,1.642,0.231,18.1,107.9338,19.59,20.67,29.45,0,110.8,13.23,20.41,287.0
"2009-06-19 01:41:00",988347,7.56,324.5,1.302,0.238,18.05,107.9279,19.57,20.65,29.55,0,110.8,13.23,20.40,286.5
"2009-06-19 01:41:30",988348,6.771,325,1.207,0.276,18.31,107.9085,19.52,20.64,29.41,0,110.8,13.23,20.35,287.0
"2009-06-19 01:42:00",988349,6.591,327.9,1.363,0.202,18.38,107.9001,19.5,20.61,29.4,0,110.8,13.23,20.32,289.9
"2009-06-19 01:42:30",988350,6.757,330.4,2.12,0.133,18.33,107.9001,19.5,20.6,29.49,0,110.8,13.23,20.32,292.4
"2009-06-19 01:43:00",988351,7.255,331.5,1.176,0.181,18.43,107.8998,19.5,20.59,29.59,0,110.8,13.23,20.32,293.5
"2009-06-19 01:43:30",988352,7.522,330.3,1.35,0.161,18.38,107.8928,19.48,20.56,29.72,0,110.8,13.23,20.30,292.3
"2009-06-19 01:44:00",988353,7.907,326,2.233,0.257,18.12,107.8788,19.45,20.56,30.35,0,110.8,13.23,20.27,288.0
"2009-06-19 01:44:30",988354,8.03,327.1,1.408,0.146,18.47,107.8693,19.42,20.55,30.95,0,110.8,13.23,20.24,289.1
"2009-06-19 01:45:00",988355,7.908,326.9,1.383,0.203,18.23,107.8681,19.42,20.53,30.96,0,110.8,13.23,20.24,288.9
"2009-06-19 01:45:30",988356,7.385,329.1,2.319,0.206,18.41,107.8705,19.43,20.5,30.68,0,110.8,13.23,20.25,291.1
"2009-06-19 01:46:00",988357,7.324,327.9,3.577,0.162,18.28,107.8463,19.37,20.48,30.45,0,110.8,13.23,20.18,289.9
"2009-06-19 01:46:30",988358,7.507,323.7,1.569,0.138,17.92,107.8401,19.35,20.48,30.91,0,110.8,13.23,20.17,285.7
"2009-06-19 01:47:00",988359,7.535,319.4,2.256,0.176,17.87,107.8398,19.35,20.45,31.3,0,110.8,13.24,20.17,281.4
"2009-06-19 01:47:30",988360,7.6,317.4,1.319,0.091,18.09,107.8375,19.34,20.42,31.72,0,110.8,13.24,20.16,279.4
"2009-06-19 01:48:00",988361,7.527,318.9,1.893,0.145,18.15,107.8117,19.28,20.41,31.89,0,110.8,13.24,20.10,280.9
"2009-06-19 01:48:30",988362,7.792,322.2,1.055,0.373,18.06,107.8097,19.27,20.4,32,0,110.8,13.24,20.09,284.2